Tracking 28790 objects as of 19-Apr-2024
HD Live streaming from Space Station
objects crossing your sky now

EKRAN 2 DEB

Track EKRAN 2 DEB now!


NORAD ID: 29014
Int'l Code: 1977-092K
Perigee: 35,761.8 km
Apogee: 35,904.5 km
Inclination: 6.2 °
Period: 1,438.1 minutes
Semi major axis: 42204 km
RCS: 1 m2 (large)
Launch date: September 20, 1977
Source: Commonwealth of Independent States (former USSR) (CIS)
Launch site: TYURATAM MISSILE AND SPACE COMPLEX (TTMTR)

Note: This is SATELLITE DEBRIS
Your satellite tracking list
Your tracking list is empty




NASA's NSSDC Master Catalog

Two Line Element Set (TLE):
1 29014U 77092K   24109.56917888  .00000115  00000-0  00000+0 0  9995
2 29014   6.1605 284.7867 0016911 322.5797  10.4894  1.00131331 76665
Source of the keplerian elements: AFSPC